[[{"header":{"parameterUnit":"m.s-1","parameterCategory":1,"la1":30.2991,"la2":30.254,"lo1":-89.0895,"lo2":-89.0444,"dy":0.0017,"dx":0.0017,"nx":28,"ny":28,"refTime":"2023-08-27T03:00:00:Z","depth":0,"parameterNumber":2,"parameterNumberName":"U-component_of_WINDS"},"data":[0,0,0,0,0,0,0,0,0,0,0,0,0,0,0,0,0,0,0,0,0,0,0,0,0,0,0,0,0,0,0,0,0,0,0,0,0,0,0,0,0,0,0,0,0,0,0,0,0,0,0,0,0,0,0,0,0,0,0.1249,0.125,0,0.1274,0.1274,0.1274,0.1254,0.1253,0.1252,0.1252,0.1279,0.128,0.1282,0,0,0,0,0,0,0,0,0,0,0,0,0,0.1188,0.1189,0.1249,0.125,0.125,0.1274,0.1274,0.1274,0.1254,0.1253,0.1252,0.1251,0.1278,0.128,0.1282,0,0,0,0,0,0,0,0,0,0,0,0,0,0.1213,0.1189,0.1249,0.1243,0.1243,0.1274,0.1274,0.1274,0.1255,0.1253,0.1252,0.1251,0.1278,0.128,0.1282,0.1321,0,0,0.1289,0.129,0,0,0,0,0,0,0,0,0.1212,0.1216,0.1244,0.1243,0.1243,0.126,0.1262,0.129,0.1255,0.125,0.1252,0.125,0.1273,0.1276,0.1283,0.1323,0.1324,0.1289,0.129,0.1291,0.1292,0,0,0,0,0,0,0,0.121,0.1215,0.1259,0.1244,0.1244,0.1239,0.1242,0.1267,0.1269,0.125,0.1249,0.1252,0.1273,0.1281,0.1284,0.1324,0.1289,0.1291,0.1292,0.1293,0.1397,0.1398,0,0,0,0,0,0,0.1209,0.1213,0.1258,0.126,0.1224,0.1241,0.1244,0.1256,0.1268,0.1269,0.1253,0.1251,0.1278,0.1281,0.1285,0.1331,0.1291,0.1294,0.1295,0.1395,0.1397,0.1398,0,0,0,0,0,0,0.1208,0.1213,0.1257,0.1236,0.1241,0.1244,0.1257,0.1257,0.1265,0.127,0.1271,0.1261,0.1277,0.1282,0.1312,0.1332,0.1295,0.1297,0.1394,0.1396,0.1398,0.1425,0,0,0,0,0,0,0.1206,0.1213,0.1227,0.1237,0.1243,0.1284,0.1258,0.1258,0.1268,0.1266,0.1278,0.1279,0.1276,0.1309,0.1314,0.1334,0.1298,0.1392,0.1395,0.1397,0.1422,0.1428,0.1432,0,0,0,0,0,0.1204,0.1235,0.1228,0.1234,0.1261,0.1285,0.1289,0.1285,0.127,0.1285,0.1289,0.1278,0.1329,0.1312,0.1318,0.1339,0.1391,0.1394,0.1397,0.142,0.1427,0.1432,0,0,0,0,0,0,0.1228,0.1236,0.1229,0.1263,0.1274,0.1282,0.13,0.1292,0.1307,0.1304,0.13,0.1303,0.1335,0.134,0.1321,0.1378,0.1357,0.1362,0.1373,0.1379,0.1384,0.1382,0.13,0,0,0,0,0,0.1237,0.1256,0.1262,0.1292,0.1297,0.1298,0.1308,0.1304,0.1315,0.132,0.1326,0.1337,0.1355,0.1368,0.1385,0.1423,0.1425,0.144,0.1445,0.1449,0.1453,0.1474,0.148,0.1409,0.1409,0.1409,0,0,0.1257,0.1263,0.1276,0.1297,0.1304,0.1324,0.1302,0.1324,0.1338,0.1323,0.1352,0.1357,0.1369,0.1404,0.1419,0.1409,0.1474,0.1453,0.1457,0.1458,0.1477,0.1484,0.149,0.1411,0.141,0.141,0,0,0.1303,0.1309,0.1335,0.1343,0.1354,0.1354,0.1361,0.137,0.1372,0.1401,0.139,0.1408,0.144,0.1449,0.1458,0.1507,0.1498,0.1513,0.1539,0.1559,0.1564,0.1569,0.1586,0.1593,0.1517,0.1517,0.1517,0,0.1326,0.1354,0.1349,0.1371,0.1381,0.1368,0.1394,0.1402,0.1419,0.1426,0.1415,0.1454,0.1462,0.1498,0.151,0.1517,0.1524,0.1511,0.1564,0.1569,0.1573,0.159,0.1596,0.1518,0.1518,0.1518,0.1518,0,0.1382,0.1402,0.1421,0.1437,0.1449,0.1473,0.1472,0.1485,0.148,0.1482,0.1511,0.152,0.1538,0.1547,0.1543,0.1582,0.1576,0.1564,0.1544,0.1582,0.1597,0.1603,0.1521,0.152,0.152,0.1519,0,0,0.1443,0.1455,0.1462,0.1469,0.1481,0.1497,0.1521,0.1538,0.1549,0.1561,0.1581,0.1608,0.1597,0.1608,0.1604,0.1622,0.166,0.1608,0.1608,0.1617,0.1704,0.1712,0.1719,0.1654,0.1655,0.1656,0.1703,0,0.1488,0.1529,0.1525,0.1563,0.1582,0.157,0.159,0.16,0.1602,0.1619,0.1622,0.1641,0.1625,0.1631,0.1648,0.1652,0.1677,0.1648,0.1673,0.1674,0.1669,0.1727,0.1736,0.178,0.1709,0.171,0.171,0,0.1547,0.156,0.16,0.1609,0.1617,0.1635,0.1651,0.1667,0.1678,0.1678,0.1689,0.1683,0.1708,0.1687,0.172,0.1701,0.1711,0.1714,0.1716,0.1718,0.1694,0.1731,0.1793,0.18,0.172,0.1719,0.1718,0,0.1586,0.1615,0.1642,0.1649,0.166,0.1673,0.1679,0.1688,0.1699,0.1713,0.172,0.1737,0.1746,0.176,0.1759,0.1744,0.1793,0.1772,0.1794,0.1794,0.1805,0.1804,0.187,0.1812,0.1812,0.1812,0.1811,0,0.1637,0.1662,0.166,0.1677,0.1705,0.1701,0.1729,0.1733,0.1741,0.1759,0.175,0.1767,0.1765,0.1782,0.1782,0.1809,0.1814,0.1815,0.1815,0.1816,0.1816,0.1822,0.1819,0.1813,0.1813,0.1813,0.1812,0,0.1686,0.1686,0.1715,0.1723,0.1726,0.1746,0.1753,0.1769,0.1771,0.1794,0.1799,0.1801,0.1821,0.1821,0.1845,0.1844,0.1878,0.1874,0.1874,0.1873,0.1895,0.1893,0.1967,0.1976,0.1913,0.1913,0.1914,0,0.1718,0.1737,0.1747,0.1758,0.1764,0.1782,0.1793,0.179,0.1801,0.1815,0.183,0.1849,0.1864,0.1896,0.1901,0.1918,0.1915,0.1939,0.1917,0.1918,0.1915,0.1913,0.1915,0.1944,0.1944,0.1945,0.1945,0,0.1775,0.1774,0.179,0.1805,0.1818,0.1831,0.1842,0.1852,0.185,0.1864,0.1883,0.1895,0.1918,0.1937,0.1954,0.196,0.1953,0.1952,0.1958,0.1959,0.1958,0.1959,0.1885,0.1951,0.195,0.195,0.1949,0.1949,0.1816,0.1832,0.1842,0.1859,0.1868,0.1878,0.1894,0.1897,0.1914,0.1932,0.1929,0.1951,0.1962,0.1984,0.1992,0.2009,0.2001,0.201,0.2012,0.2014,0.2016,0.1956,0.2013,0.2013,0.2012,0.2012,0.2012,0,0.1872,0.1878,0.1894,0.191,0.1924,0.1915,0.1927,0.194,0.1959,0.197,0.1984,0.2007,0.2026,0.2032,0.2049,0.2063,0.206,0.2067,0.2066,0.2068,0.2023,0.2016,0.2069,0.2069,0.2069,0.2069,0.2069,0.2069,0.1903,0.1929,0.1929,0.196,0.1966,0.1987,0.1995,0.2005,0.2013,0.2039,0.2054,0.2057,0.2066,0.2085,0.2101,0.2103,0.2109,0.2119,0.2119,0.2077,0.2071,0.2065,0.2058,0.212,0.212,0.2162,0.2162,0.2162]},{"header":{"parameterUnit":"m.s-1","parameterCategory":1,"la1":30.2991,"la2":30.254,"lo1":-89.0895,"lo2":-89.0444,"dy":0.0017,"dx":0.0017,"nx":28,"ny":28,"refTime":"2023-08-27T03:00:00:Z","depth":0,"parameterNumber":3,"parameterNumberName":"V-component_of_WINDS"},"data":[0,0,0,0,0,0,0,0,0,0,0,0,0,0,0,0,0,0,0,0,0,0,0,0,0,0,0,0,0,0,0,0,0,0,0,0,0,0,0,0,0,0,0,0,0,0,0,0,0,0,0,0,0,0,0,0,0,0,5.1449,5.145,0,5.1493,5.1494,5.1494,5.1405,5.1402,5.1399,5.1397,5.1436,5.1439,5.1443,0,0,0,0,0,0,0,0,0,0,0,0,0,5.1283,5.1287,5.1449,5.145,5.145,5.1493,5.1494,5.1494,5.1406,5.1402,5.1399,5.1395,5.1434,5.1439,5.1443,0,0,0,0,0,0,0,0,0,0,0,0,0,5.1344,5.1288,5.1449,5.1411,5.1409,5.1493,5.1494,5.1494,5.1406,5.1402,5.1398,5.1394,5.1433,5.1438,5.1444,5.1565,0,0,5.1461,5.1463,0,0,0,0,0,0,0,0,5.1341,5.135,5.1416,5.1414,5.1411,5.1439,5.1449,5.1518,5.1407,5.1407,5.1397,5.1392,5.144,5.1445,5.1462,5.1567,5.1569,5.1461,5.1465,5.1467,5.1469,0,0,0,0,0,0,0,5.1337,5.1348,5.1466,5.1417,5.1414,5.139,5.1394,5.1462,5.1447,5.1407,5.14,5.1407,5.1438,5.1457,5.1462,5.1569,5.1461,5.1466,5.147,5.1472,5.1775,5.178,0,0,0,0,0,0,5.1338,5.1345,5.1465,5.1468,5.1365,5.1397,5.1401,5.1435,5.1446,5.1444,5.1411,5.1403,5.145,5.1456,5.1464,5.1606,5.1467,5.1472,5.1476,5.1771,5.1776,5.1781,0,0,0,0,0,0,5.1335,5.1349,5.1463,5.1405,5.1417,5.1405,5.1442,5.1438,5.1457,5.1449,5.1446,5.1434,5.1446,5.1456,5.1541,5.1606,5.1475,5.148,5.1765,5.1772,5.1779,5.1893,0,0,0,0,0,0,5.133,5.1349,5.1396,5.1406,5.1421,5.1542,5.1447,5.1442,5.1468,5.1458,5.147,5.1468,5.1444,5.1533,5.1546,5.1612,5.1484,5.1759,5.1768,5.1777,5.1883,5.1903,5.192,0,0,0,0,0,5.1325,5.1425,5.1399,5.1414,5.148,5.1546,5.1554,5.1526,5.1473,5.152,5.1515,5.1467,5.1597,5.1543,5.1557,5.1625,5.1755,5.1766,5.1776,5.1875,5.1899,5.1919,0,0,0,0,0,0,5.142,5.1426,5.1397,5.1504,5.1525,5.1531,5.1588,5.1552,5.1587,5.1576,5.1539,5.1542,5.1635,5.1638,5.1577,5.1742,5.1667,5.1681,5.1737,5.176,5.1778,5.1775,5.1489,0,0,0,0,0,5.1454,5.1509,5.151,5.1604,5.1617,5.1601,5.1629,5.1606,5.1626,5.1634,5.1635,5.1654,5.1699,5.173,5.1771,5.1883,5.1884,5.1937,5.1955,5.197,5.1983,5.2042,5.2065,5.1816,5.1816,5.1816,0,0,5.1524,5.1534,5.157,5.1624,5.1638,5.1694,5.1609,5.1672,5.1713,5.1642,5.1724,5.1725,5.1744,5.1844,5.1888,5.185,5.2052,5.1984,5.1996,5.2,5.2055,5.2079,5.21,5.1823,5.1822,5.1821,0,0,5.168,5.1693,5.1774,5.179,5.1813,5.1802,5.1822,5.1833,5.1832,5.1913,5.1862,5.1909,5.1988,5.2003,5.2022,5.2185,5.2143,5.22,5.2295,5.2354,5.2373,5.239,5.2449,5.247,5.2212,5.2212,5.2212,0,5.1763,5.1848,5.1819,5.1886,5.1911,5.1852,5.1932,5.1948,5.1983,5.2001,5.1958,5.2056,5.2065,5.2167,5.2207,5.2224,5.2244,5.2198,5.2373,5.239,5.2406,5.2461,5.2483,5.2219,5.2218,5.2218,5.2217,0,5.1949,5.2008,5.207,5.2108,5.2139,5.2212,5.2193,5.2228,5.2203,5.2196,5.2279,5.2288,5.233,5.2352,5.2327,5.2452,5.2427,5.238,5.2303,5.2437,5.2488,5.2509,5.2229,5.2226,5.2224,5.2223,0,0,5.2165,5.2187,5.221,5.2227,5.2249,5.2293,5.2363,5.2406,5.2437,5.2463,5.252,5.2589,5.2545,5.2566,5.2542,5.2594,5.2723,5.2539,5.2539,5.2573,5.286,5.2896,5.2921,5.2695,5.2699,5.2702,5.2858,0,5.232,5.2443,5.242,5.2539,5.2593,5.2539,5.26,5.2619,5.2615,5.2658,5.2652,5.2702,5.2641,5.2653,5.2702,5.2697,5.278,5.2685,5.2746,5.2749,5.2743,5.2947,5.2985,5.3133,5.2878,5.2882,5.2884,0,5.2517,5.2553,5.2679,5.2693,5.2714,5.277,5.2808,5.2851,5.2871,5.2864,5.2889,5.2855,5.2923,5.2847,5.2939,5.2876,5.2899,5.2901,5.2906,5.291,5.2824,5.2957,5.3179,5.3201,5.2915,5.2913,5.291,0,5.2662,5.2741,5.2827,5.2843,5.2861,5.2902,5.2911,5.2927,5.2955,5.2987,5.3005,5.3044,5.3066,5.3096,5.3074,5.302,5.317,5.3091,5.3165,5.3166,5.3199,5.3197,5.3428,5.3215,5.3215,5.3214,5.3214,0,5.2837,5.2916,5.2893,5.2946,5.3032,5.3004,5.309,5.3092,5.3107,5.3158,5.3112,5.3161,5.3128,5.3174,5.3156,5.3236,5.3246,5.3241,5.3235,5.3245,5.3246,5.326,5.3249,5.322,5.3219,5.3218,5.3217,0,5.3013,5.3001,5.3091,5.3102,5.3107,5.317,5.3178,5.3227,5.3219,5.3285,5.3298,5.3286,5.3337,5.3318,5.3372,5.336,5.3462,5.3443,5.3456,5.3451,5.3527,5.352,5.3774,5.3806,5.3573,5.3575,5.3577,0,5.3126,5.3186,5.3204,5.3236,5.3249,5.3301,5.333,5.3304,5.3335,5.3364,5.3408,5.3456,5.3493,5.3577,5.3572,5.3613,5.3594,5.368,5.36,5.3608,5.3595,5.3592,5.3598,5.3696,5.3699,5.3701,5.3703,0,5.3326,5.3318,5.3363,5.3406,5.3442,5.3474,5.3501,5.353,5.3505,5.3543,5.3596,5.3625,5.3681,5.3728,5.3765,5.3772,5.3734,5.3729,5.3748,5.3758,5.3764,5.3762,5.35,5.3723,5.3721,5.3719,5.3718,5.3717,5.3474,5.3525,5.3547,5.3598,5.3616,5.3644,5.369,5.369,5.3734,5.3779,5.3761,5.3822,5.384,5.3886,5.3899,5.3945,5.3911,5.3939,5.3946,5.3954,5.3964,5.3757,5.3952,5.3951,5.395,5.395,5.3949,0,5.3672,5.3684,5.3732,5.3773,5.3813,5.3776,5.3805,5.384,5.3895,5.3917,5.3955,5.4016,5.4062,5.4061,5.4104,5.4141,5.4125,5.4153,5.415,5.4152,5.3991,5.397,5.4166,5.4166,5.4166,5.4166,5.4166,5.4166,5.378,5.3865,5.3859,5.3952,5.3962,5.4024,5.4044,5.4068,5.4085,5.4156,5.4196,5.4196,5.4208,5.4251,5.4292,5.429,5.4308,5.4343,5.4335,5.4185,5.4163,5.4143,5.4123,5.4348,5.4348,5.4492,5.4494,5.4495]}]]